TimePST,TemperatureF,Dew PointF,Humidity,Sea Level PressureIn,VisibilityMPH,Wind Direction,Wind SpeedMPH,Gust SpeedMPH,PrecipitationIn,Events,Conditions,WindDirDegrees,DateUTC
12:53 AM,33.1,21.9,64,30.40,10.0,Calm,Calm,-,N/A,,Clear,0,2013-12-10 08:53:00
1:53 AM,32.0,23.0,69,30.40,10.0,Calm,Calm,-,N/A,,Clear,0,2013-12-10 09:53:00
2:53 AM,30.0,23.0,75,30.39,10.0,South,3.5,-,N/A,,Clear,180,2013-12-10 10:53:00
3:53 AM,28.9,23.0,78,30.37,10.0,ESE,3.5,-,N/A,,Clear,110,2013-12-10 11:53:00
4:53 AM,28.9,23.0,78,30.36,10.0,Calm,Calm,-,N/A,,Clear,0,2013-12-10 12:53:00
5:53 AM,28.9,21.9,75,30.35,10.0,Calm,Calm,-,N/A,,Clear,0,2013-12-10 13:53:00
6:53 AM,28.0,21.9,78,30.36,10.0,SSE,3.5,-,N/A,,Clear,150,2013-12-10 14:53:00
7:53 AM,30.9,24.1,76,30.36,10.0,East,3.5,-,N/A,,Clear,80,2013-12-10 15:53:00
8:53 AM,35.1,26.1,70,30.36,10.0,ENE,3.5,-,N/A,,Clear,70,2013-12-10 16:53:00
9:53 AM,39.0,26.1,60,30.36,10.0,Calm,Calm,-,N/A,,Partly Cloudy,0,2013-12-10 17:53:00
10:53 AM,44.1,25.0,47,30.34,10.0,Calm,Calm,-,N/A,,Clear,0,2013-12-10 18:53:00
11:53 AM,46.0,24.1,42,30.31,10.0,Calm,Calm,-,N/A,,Scattered Clouds,0,2013-12-10 19:53:00
12:53 PM,48.9,23.0,36,30.27,10.0,Calm,Calm,-,N/A,,Scattered Clouds,0,2013-12-10 20:53:00
1:53 PM,52.0,23.0,32,30.24,10.0,Calm,Calm,-,N/A,,Scattered Clouds,0,2013-12-10 21:53:00
2:53 PM,53.1,24.1,32,30.22,10.0,NNW,3.5,-,N/A,,Scattered Clouds,330,2013-12-10 22:53:00
3:53 PM,52.0,24.1,34,30.21,10.0,Calm,Calm,-,N/A,,Scattered Clouds,0,2013-12-10 23:53:00
4:53 PM,48.9,26.1,41,30.22,10.0,West,4.6,-,N/A,,Scattered Clouds,280,2013-12-11 00:53:00
5:53 PM,48.0,27.0,44,30.22,10.0,WSW,5.8,-,N/A,,Clear,240,2013-12-11 01:53:00
6:53 PM,45.0,27.0,49,30.22,10.0,Calm,Calm,-,N/A,,Partly Cloudy,0,2013-12-11 02:53:00
7:53 PM,43.0,28.0,56,30.21,10.0,Calm,Calm,-,N/A,,Mostly Cloudy,0,2013-12-11 03:53:00
8:53 PM,41.0,28.9,62,30.22,10.0,Calm,Calm,-,N/A,,Mostly Cloudy,0,2013-12-11 04:53:00
9:53 PM,41.0,27.0,57,30.23,10.0,Calm,Calm,-,N/A,,Partly Cloudy,0,2013-12-11 05:53:00
10:53 PM,39.9,28.0,63,30.23,10.0,Calm,Calm,-,N/A,,Partly Cloudy,0,2013-12-11 06:53:00
11:53 PM,37.0,28.0,70,30.22,10.0,Calm,Calm,-,N/A,,Partly Cloudy,0,2013-12-11 07:53:00